Location: Casa Albonetti
(43.6333°N, 13.2500°E)
Time: 12:38:13
(UTC+00:00)

Daily predictions for brighter satellites

Satellite Brightness Start Highest point End
(mag) Time Altitude Azimuth Time Altitude Azimuth Time Altitude Azimuth
ATLAS 3B R/B 3.3 18:54:45 10° NNW 19:01:38 51° NE 19:08:47 10° ESE
Cosmos 2279 Rocket 4.0 18:56:21 10° N 19:02:34 76° E 19:08:46 10° SSE
BREEZE M DEB (TANK) 4.2 19:02:05 10° SSE 19:04:22 17° ESE 19:09:09 10° ENE
Cosmos 773 Rocket 4.0 18:59:53 10° S 19:05:03 70° ESE 19:10:12 10° NNE
Cosmos 1833 Rocket 3.2 18:59:42 10° SW 19:05:18 66° WNW 19:10:56 10° NNE
SAR-Lupe-1 4.0 19:02:50 10° NNE 19:06:26 79° ESE 19:10:00 10° S
OBJECT-B 1.7 19:04:25 10° S 19:07:32 50° W 19:10:41 10° NNW
SAR-Lupe-4 3.5 19:04:00 10° NNE 19:07:36 70° ESE 19:11:09 10° S
Cosmos 2082 Rocket 2.2 19:06:16 10° SSW 19:11:51 72° ESE 19:17:30 10° NNE
SJ-6B 3.3 19:08:30 10° S 19:12:10 59° W 19:15:52 10° NNW
Cosmos 1842 Rocket 3.6 19:11:46 10° N 19:16:15 73° E 19:20:43 10° SSE
Cosmos 2278 4.0 19:11:27 10° NNW 19:17:02 56° ENE 19:22:35 10° SE
Resurs 1-3 3.6 19:13:10 10° SSE 19:17:32 82° ENE 19:21:57 10° N
Cosmos 1633 2.7 19:18:53 10° S 19:22:23 54° E 19:25:56 10° NNE
Cosmos 2360 Rocket 4.3 19:20:39 10° NNE 19:23:20 13° NE 19:26:02 10° ENE
Cosmos 158 Rocket 4.5 19:21:13 10° SSE 19:25:54 38° ESE 19:30:45 10° NE
Nadezhda 4 Rocket 4.0 19:24:49 10° S 19:30:53 63° E 19:37:02 10° NNE
Cosmos 1606 2.6 19:27:53 10° N 19:31:41 84° E 19:35:28 10° S
GP-B 4.4 19:32:43 10° NNE 19:36:17 23° E 19:38:47 15° SE
Landsat 7 3.9 19:32:10 10° SSE 19:36:53 67° ENE 19:41:37 10° N
SPOT 3 Rocket 3.7 19:33:28 10° SSE 19:38:35 63° ENE 19:43:45 10° N
IGS 5A 3.4 19:36:00 10° SSE 19:40:07 82° ENE 19:44:17 10° N
ISS -3.3 19:37:06 10° NW 19:40:26 54° NNE 19:42:58 16° ESE
BREEZE-M DEB (TANK) 4.3 19:32:20 10° W 19:43:49 50° NNW 19:47:19 10° ENE
MetOp-B 4.3 19:40:08 12° SSE 19:45:00 62° ENE 19:50:18 10° N
Cosmos 1980 Rocket 2.4 19:40:03 10° NNW 19:45:41 73° WSW 19:51:04 11° SSE
Cosmos 2369 4.4 19:40:28 10° NW 19:45:57 53° WSW 19:51:24 10° S
CZ-2C R/B 4.0 19:43:43 10° NNE 19:48:03 44° E 19:52:03 11° S
RESURS DK-1 3.7 19:46:23 10° SW 19:50:22 44° WNW 19:54:23 10° NNE
Cosmos 2221 3.6 19:46:28 10° NNW 19:50:34 43° W 19:54:39 10° SSW
USA 245 4.1 19:47:53 16° SE 19:51:49 49° ENE 19:55:57 10° N
ERBS 4.3 19:49:25 10° WNW 19:51:49 19° SW 19:54:07 10° S
BREEZE-M DEB (TANK) 3.2 19:51:03 10° WSW 19:54:26 83° SSE 20:06:06 10° ENE
Meteor 2-15 4.4 19:49:25 10° N 19:55:30 74° E 20:00:51 14° SSE
Cosmos 2322 Rocket 3.2 19:51:18 10° N 19:56:21 33° NE 19:59:58 17° ESE
Cosmos 1538 Rocket 4.2 19:55:43 10° SSW 20:00:55 77° WNW 20:06:08 10° NNE
Cosmos 304 Rocket 3.9 19:56:11 10° NNW 20:00:56 61° ENE 20:03:54 22° SE
BREEZE-M DEB (TANK) 3.7 19:57:55 10° WNW 20:01:19 85° NNE 20:09:24 16° ESE
Cosmos 1933 3.4 19:58:08 10° N 20:02:10 61° E 20:04:32 23° SSE
Resurs 01 Rocket 2.1 19:58:25 10° S 20:02:47 59° W 20:07:12 10° NNW
Cosmos 2151 2.9 20:00:54 10° S 20:05:08 90° W 20:09:26 10° N
ERS-2 3.7 20:02:46 10° N 20:06:09 37° WNW 20:09:31 10° SW
Cosmos 2098 Rocket 3.6 20:03:38 10° SSW 20:06:32 42° WNW 20:09:57 10° N
Meteor 2-3 Rocket 3.7 20:04:38 10° S 20:10:15 75° E 20:15:59 10° NNE
Gbstr 26 Del rocket 3.3 20:06:53 10° NW 20:10:33 51° NNE 20:12:56 21° E
JB-3 4.3 20:06:50 10° NNE 20:10:58 68° ESE 20:13:56 18° S
CARTOSAT-1 3.7 20:09:29 25° SE 20:11:49 57° ENE 20:16:04 10° N
Cosmos 2084 4.2 20:12:29 28° ESE 20:12:37 28° ESE 20:16:10 10° ENE
Meteor 2-15 Rocket 4.4 20:07:33 10° N 20:13:40 81° E 20:18:12 19° SSE
Cosmos 2219 Rocket 4.3 20:14:29 10° N 20:17:22 14° NE 20:20:15 10° ENE
Cosmos 1862 4.5 20:21:26 25° E 20:21:42 25° E 20:25:00 10° NNE
SL-16 R/B 2.3 20:19:24 10° NNW 20:25:05 68° ENE 20:28:03 29° SE
COSMOS 2455 4.4 20:26:04 16° E 20:26:04 16° E 20:29:01 10° ENE
Cosmos 1782 2.7 20:24:36 10° N 20:28:38 72° E 20:30:03 38° SSE
ARIANE 5 R/B 2.6 20:26:51 32° SSE 20:28:54 73° ENE 20:33:21 10° N
Cosmos 371 Rocket 4.4 20:25:00 10° NW 20:29:27 39° WSW 20:32:51 16° SSW
Cosmos 1809 Rocket 4.5 20:30:11 24° SSE 20:33:58 62° E 20:40:02 10° NNE
SPOT 1/Viking Rocket 4.1 20:31:19 18° S 20:35:06 54° W 20:40:13 10° NNW
Cosmos 1271 Rocket 3.0 20:31:13 10° NNW 20:35:12 68° W 20:36:55 32° S
USA 276 2.1 20:35:02 10° WNW 20:38:12 70° NNE 20:38:32 62° ENE
BREEZE-M DEB (TANK) 2.9 20:35:45 10° WNW 20:39:08 71° SSW 20:43:14 27° SE
Cosmos 1766 Rocket 3.4 20:37:42 34° S 20:39:32 74° E 20:43:55 10° NNE
Cosmos 1151 Rocket 2.9 20:37:52 10° N 20:42:15 80° E 20:43:40 42° SSE
ATLAS 5 CENTAUR R/B 4.4 20:40:17 10° N 20:43:45 17° NNE 20:47:34 10° ENE
Cosmos 1328 Rocket 3.6 20:42:04 10° N 20:46:30 67° E 20:47:39 46° SE
Cosmos 923 Rocket 4.3 20:42:00 10° SSW 20:47:19 69° WNW 20:52:40 10° NNE
Terra 1.8 20:47:56 42° SE 20:49:27 67° ENE 20:54:12 10° N
SPOT 5 2.5 20:50:48 43° S 20:52:10 81° WSW 20:56:34 10° NNW
ATLAS 3B R/B 3.7 20:45:41 10° NW 20:52:16 41° WSW 20:56:42 21° S
USA 267 3.5 20:48:13 10° ENE 20:54:26 45° SE 20:59:02 18° SSW
Meteor 2-21 Rocket 4.5 20:56:51 36° SSE 20:59:20 62° E 21:05:26 10° NNE
NOSS 2-1 (C) 3.3 21:00:50 50° NE 21:00:50 50° NE 21:03:23 10° NE
Cosmos 2056 Rocket 3.6 20:55:14 10° NNW 21:00:35 70° ENE 21:02:09 45° SE
ERS-1 Rocket 3.1 21:00:35 36° S 21:02:34 66° WSW 21:07:34 10° NNW
BREEZE-M DEB (TANK) 4.2 21:01:47 10° WNW 21:03:13 20° N 21:03:13 20° N
SL-27 R/B 2.8 21:06:23 56° NE 21:06:23 56° NE 21:09:24 10° NNE
Meteor 2-21 4.4 21:02:38 29° S 21:05:59 89° W 21:12:12 10° N
NOSS 2-1 (D) 3.2 21:08:18 59° NNE 21:08:18 59° NNE 21:11:05 10° NE
Cosmos 2360 Rocket 2.2 21:02:49 10° NNW 21:08:27 68° ENE 21:10:08 45° SE
Cosmos 1833 4.1 21:14:09 43° S 21:16:02 69° ESE 21:21:48 10° NNE
ISS -1.6 21:14:21 10° W 21:15:56 19° WSW 21:15:56 19° WSW
Cosmos 2333 Rocket 2.9 21:13:38 10° NNW 21:18:59 42° ENE 21:20:38 34° E
Meteor 1-10 Rocket 4.1 21:15:53 10° N 21:21:28 85° ENE 21:22:51 53° SSE
Cosmos 1371 Rocket 4.1 21:16:42 10° NNW 21:22:03 70° WSW 21:23:22 50° S
Cosmos 1500 Rocket 3.7 21:22:35 56° E 21:22:35 56° E 21:26:45 10° NNE
Cosmos 1680 Rocket 4.5 21:17:29 10° SW 21:22:32 46° WNW 21:27:37 10° N
Cosmos 1812 3.2 21:19:05 10° NNW 21:22:50 50° W 21:23:03 49° WSW
Cosmos 972 Rocket 4.5 21:23:45 43° E 21:23:45 43° E 21:28:33 10° NNE
Cosmos 220 Rocket 4.4 21:21:10 10° NNW 21:25:23 51° WSW 21:25:50 48° SW
USA 234 4.2 21:22:43 14° E 21:28:00 44° NNE 21:34:07 10° NW
Cosmos 2322 4.3 21:23:49 10° NNW 21:29:22 48° ENE 21:30:49 39° E
COBE Rocket 4.4 21:29:38 41° E 21:29:54 42° ENE 21:34:18 10° N
Cosmos 292 Rocket 3.6 21:28:31 10° NNW 21:33:18 82° ENE 21:33:40 75° SE
Meteor 2-16 Rocket 4.4 21:35:25 43° SSW 21:37:32 80° W 21:43:39 10° N
Cosmos 2237 Rocket 4.3 21:35:27 10° N 21:39:17 18° NE 21:42:15 13° E
Cosmos 2322 Rocket 3.0 21:35:14 10° NW 21:40:27 40° WSW 21:41:46 35° SW
Cosmos 1408 Rocket 4.2 21:40:12 42° WSW 21:41:00 48° WNW 21:45:14 10° N
Cosmos 1743 Rocket 3.5 21:42:22 88° N 21:42:22 88° N 21:46:47 10° N
Cosmos 2285 Rocket 4.3 21:40:00 10° NNW 21:46:12 57° ENE 21:47:43 46° ESE
IRIDIUM 106 4.2 21:42:40 10° N 21:47:54 75° E 21:48:18 70° SE
Cosmos 2315 Rocket 4.0 21:44:35 10° N 21:50:57 78° E 21:52:17 57° SSE
Sich 1 3.8 21:51:50 42° ENE 21:51:50 42° ENE 21:55:10 10° NNE
Cosmos 2266 Rocket 4.1 21:53:30 44° SSW 21:55:28 68° W 22:01:41 10° N
Cosmos 1048 Rocket 4.0 21:59:25 62° E 21:59:25 62° E 22:04:08 10° NNE
Cosmos 489 Rocket 4.5 21:59:04 57° SE 21:59:39 59° ESE 22:05:53 10° NNE
Cosmos 2219 Rocket 2.1 21:56:45 10° NNW 22:02:22 73° ENE 22:02:58 66° ESE
BREEZE-M DEB (TANK) 4.3 21:50:51 10° SW 22:06:15 67° SSE 22:10:47 10° ENE
Cosmos 2228 Rocket 3.3 22:02:07 10° NNW 22:06:05 68° NW 22:06:05 68° NW
SL-16 R/B 4.1 22:04:51 10° WNW 22:08:33 18° W 22:09:55 17° WSW
COSMOS 2455 2.8 22:09:10 55° SW 22:10:36 83° WNW 22:16:40 10° NNE
NOSS 3-1 (C) 4.0 22:04:12 10° NW 22:11:51 83° SW 22:14:30 50° SSE
Cosmos 2333 4.1 22:06:20 10° NNW 22:11:54 67° WSW 22:12:13 66° SW
COSMOS 2428 2.6 22:11:24 10° NNW 22:17:07 78° ENE 22:17:35 72° ESE
Spot 4 3.9 22:21:45 73° WNW 22:21:45 73° WNW 22:26:18 10° NNW
USA 229 DEB 3.9 22:18:38 10° NW 22:26:02 81° NE 22:28:16 51° SE
USA 229 3.9 22:18:44 10° NW 22:26:08 80° NE 22:28:23 50° SE
Terra 4.1 22:26:49 13° W 22:27:40 14° W 22:30:05 10° WNW
ATLAS 5 CENTAUR R/B 2.6 22:23:47 10° NNW 22:29:20 62° NE 22:30:39 51° E
Cosmos 1452 Rocket 3.8 22:27:55 10° NNW 22:32:49 54° W 22:32:49 54° W
ALOS 2 3.0 22:33:57 60° N 22:33:57 60° N 22:37:34 10° NNW
Cosmos 1707 Rocket 4.1 22:28:48 10° N 22:32:18 57° N 22:32:18 57° N
USA 267 3.7 22:31:09 10° NE 22:37:34 61° NNW 22:43:59 10° WSW
Cosmos 2219 4.4 22:40:38 30° E 22:40:38 30° E 22:44:49 10° NE
Nadezhda 1 Rocket 4.3 22:37:15 10° N 22:43:34 57° ENE 22:44:26 52° ESE
SL-08 ROCKET BODY 4.2 22:44:13 77° S 22:44:43 90° ESE 22:50:54 10° N
NOSS 3-1 (A) 4.0 22:38:54 10° NW 22:46:33 82° WSW 22:48:48 54° SSE
Cosmos 2360 Rocket 4.0 22:48:10 10° WNW 22:51:49 18° W 22:51:53 18° W
Cosmos 1110 Rocket 4.3 22:53:52 10° NNW 22:58:40 60° WNW 22:58:40 60° WNW
Cosmos 1980 3.7 22:55:20 10° NNW 23:01:00 69° ENE 23:01:19 67° E
Cosmos 2333 Rocket 3.4 22:58:12 10° NW 23:02:38 30° W 23:02:38 30° W
Cosmos 1331 Rocket 4.3 22:59:23 10° NNW 23:03:58 58° WNW 23:03:58 58° WNW
Meteor 2-17 Rocket 4.4 23:05:18 64° ESE 23:05:35 65° E 23:11:34 10° NNE
USA 234 3.1 23:10:02 68° S 23:10:44 74° SW 23:17:19 10° NW
Cosmos 1340 Rocket 4.4 23:13:35 32° NNE 23:13:35 32° NNE 23:15:53 10° NNE
Nimbus 7 Rocket 4.4 23:07:25 10° NNE 23:13:26 75° WNW 23:14:02 69° WSW
NOSS 0 Rocket 3.9 23:09:44 10° NNW 23:15:56 67° WSW 23:16:01 67° WSW
Cosmos 2297 Rocket 2.1 23:17:11 76° E 23:17:11 76° E 23:22:40 10° NNE
Okean 1-7 4.0 23:15:42 10° N 23:18:54 42° NE 23:18:54 42° NE
Lacrosse 5 2.3 23:21:59 56° ENE 23:21:59 56° ENE 23:26:00 10° NE
Cosmos 2237 Rocket 2.1 23:18:24 10° NNW 23:24:02 85° W 23:24:02 85° W
Cosmos 2242 Rocket 4.3 23:21:36 10° N 23:25:08 50° NNE 23:25:08 50° NNE
NOSS 2-2 (E) 4.5 23:21:25 10° NW 23:27:01 84° NE 23:28:32 58° SE
Cosmos 1470 Rocket 4.5 23:29:03 44° NNW 23:29:03 44° NNW 23:32:20 10° N
Cosmos 2227 Rocket 2.2 23:28:53 71° E 23:28:53 71° E 23:34:20 10° NNE
Cosmos 909 Rocket 4.1 23:31:44 65° SSE 23:32:25 70° ESE 23:39:52 10° NE
Cosmos 1933 Rocket 4.2 23:35:34 54° NNW 23:35:34 54° NNW 23:39:08 10° N
Timation 1 Rocket 4.2 23:41:04 71° SE 23:41:13 71° ESE 23:47:11 10° NNE
Meteor 1-11 Rocket 3.6 23:41:19 72° E 23:41:21 72° E 23:46:51 10° NNE
Cosmos 2219 Rocket 4.2 23:42:18 10° WNW 23:44:40 16° W 23:44:40 16° W
Cosmos 2263 Rocket 4.0 23:46:36 18° ESE 23:47:00 18° E 23:50:46 10° ENE
Cosmos 1269 Rocket 4.5 23:50:05 49° WNW 23:50:20 50° WNW 23:55:29 10° N
NOSS 2-2 (C) 4.4 23:45:41 10° NW 23:51:14 83° SW 23:52:23 64° SSE
SL-16 R/B 2.6 23:45:52 10° NNW 23:51:28 58° ENE 23:52:43 47° ESE
Cosmos 1992 Rocket 4.0 23:46:47 10° NNW 23:52:01 74° ENE 23:52:06 74° ENE
PSLV R/B 4.3 23:47:52 10° N 23:52:12 53° NW 23:52:12 53° NW
Resurs 1-4 Rocket 3.4 23:50:14 10° NE 23:54:44 28° E 23:55:13 27° ESE
